Index of /shared/routes/7a8c4f7b8214fed48f2012b8f29acd1c

[ICO]NameLast modifiedSizeDescription

[PARENTDIR]Parent Directory  -  
[   ]110614-1957-Untitled.kmz2011-06-15 03:56 11K 
[   ]110614-1957-Untitled.kmz.php2011-06-15 03:56 691  
[IMG]110614-1957-Untitled.kmz.png2011-06-15 03:56 0  
[   ]110616-1934-Untitled.kmz2011-06-17 03:19 15K 
[   ]110616-1934-Untitled.kmz.php2011-06-17 03:19 681  
[IMG]110616-1934-Untitled.kmz.png2011-06-17 03:19 0  
[   ]110619-1639-Untitled.kmz2011-06-20 01:22 11K 
[   ]110619-1639-Untitled.kmz.php2011-06-20 01:22 681  
[IMG]110619-1639-Untitled.kmz.png2011-06-20 01:22 0  
[   ]110620-2010-Untitled.kmz2011-06-21 03:44 11K 
[   ]110620-2010-Untitled.kmz.php2011-06-21 03:44 691  
[IMG]110620-2010-Untitled.kmz.png2011-06-21 03:44 0  
[   ]110621-1915-Untitled.kmz2011-06-22 02:51 7.8K 
[   ]110621-1915-Untitled.kmz.php2011-06-22 02:51 691  
[IMG]110621-1915-Untitled.kmz.png2011-06-22 02:51 0  
[   ]110622-1926-Untitled.kmz2011-06-23 02:57 11K 
[   ]110622-1926-Untitled.kmz.php2011-06-23 02:57 681  
[IMG]110622-1926-Untitled.kmz.png2011-06-23 02:57 0  
[   ]110624-1835-Untitled.kmz2011-06-25 02:41 21K 
[   ]110624-1835-Untitled.kmz.php2011-06-25 02:41 690  
[IMG]110624-1835-Untitled.kmz.png2011-06-25 02:41 0  
[   ]110625-1944-Untitled.kmz2011-06-26 03:26 12K 
[   ]110625-1944-Untitled.kmz.php2011-06-26 03:26 679  
[IMG]110625-1944-Untitled.kmz.png2011-06-26 03:26 0  
[   ]110626-1430-Untitled.kmz2011-06-27 07:50 18K 
[   ]110626-1430-Untitled.kmz.php2011-06-27 07:50 692  
[IMG]110626-1430-Untitled.kmz.png2011-06-27 07:50 0  
[   ]110809-2128-Untitled.kmz2011-08-10 04:29 1.0K 
[   ]110809-2128-Untitled.kmz.php2011-08-10 04:29 596  
[IMG]110809-2128-Untitled.kmz.png2011-08-10 04:29 0  

Apache/2.4.29 (Ubuntu) Server at kineticgps.com Port 80